FW4335 Weather Reports


Display with metric or nautical units.
time (UTC)temp
F
wind
direction
speed
MPH
gust
MPH
rain 1hr
in
rain 24hr
in
rain mn
in
humidity
%
barometer
mb
20260905101543 52 202 0.0 0.0 0.00 0.03 0.00 97 1020.0
20260905100043 52 202 0.0 0.0 0.00 0.03 0.00 97 1020.0
20260905093042 52 202 0.0 0.0 0.00 0.03 0.00 97 1020.1
20260905091541 52 202 0.0 1.0 0.00 0.03 0.00 96 1020.0
20260905090042 53 202 0.0 0.0 0.00 0.03 0.00 96 1019.9
20260905084621 53 202 0.0 0.0 0.00 0.03 0.00 96 1019.9
20260905083041 52 202 0.0 0.0 0.00 0.03 0.00 96 1019.8
20260905081541 53 202 0.0 0.0 0.00 0.03 0.00 96 1019.6
20260905074540 53 202 0.0 0.0 0.00 0.03 0.00 96 1019.5
20260905073036 53 202 0.0 0.0 0.00 0.03 0.00 95 1019.3
20260905071537 54 195 0.0 2.0 0.00 0.03 0.00 95 1019.2
20260905061536 54 157 0.0 0.0 0.01 0.03 0.02 94 1018.9
20260905060037 54 157 0.0 0.0 0.00 0.02 0.02 94 1019.0
20260905054535 54 169 0.0 0.0 0.00 0.02 0.02 94 1018.9
20260905053036 54 202 0.0 0.0 0.00 0.02 0.02 94 1018.8
20260905051533 54 202 0.0 0.0 0.00 0.02 0.02 93 1018.8
20260905050151 54 202 0.0 0.0 0.00 0.02 0.02 93 1018.8
20260905044608 54 202 0.0 0.0 0.00 0.02 0.02 93 1018.8
20260905043142 54 202 0.0 0.0 0.00 0.02 0.02 92 1018.6
20260905041535 54 202 0.0 1.0 0.00 0.02 0.02 91 1018.6
20260905034533 55 191 0.0 1.0 0.00 0.02 0.02 90 1018.3
20260905033035 56 157 0.0 2.0 0.00 0.02 0.02 89 1018.1
20260905031535 56 157 0.0 0.0 0.00 0.02 0.02 88 1018.0
20260905030108 57 161 0.0 0.0 0.00 0.02 0.02 87 1017.9
20260905024536 57 201 0.0 2.0 0.00 0.02 0.02 85 1017.8
20260905023037 58 202 0.0 0.0 0.00 0.02 0.02 83 1017.9
20260905021537 60 219 0.0 2.0 0.00 0.02 0.02 78 1017.7
20260905014536 64 22 0.0 0.0 0.00 0.02 0.02 72 1017.3
20260905013034 64 22 0.0 0.0 0.00 0.02 0.02 75 1017.0
20260905010031 64 33 0.0 4.0 0.00 0.02 0.02 73 1017.0
20260905004536 64 6 0.0 4.0 0.00 0.02 0.02 73 1016.9
20260905003145 65 336 0.0 3.0 0.00 0.02 0.02 73 1016.7
20260905001535 64 226 0.0 0.0 0.00 0.02 0.02 74 1016.8
20260904234649 64 247 0.0 1.0 0.00 0.02 0.02 74 1016.7
20260904233034 64 244 0.0 2.0 0.00 0.02 0.02 74 1016.8
20260904231532 63 159 0.0 1.0 0.00 0.02 0.02 76 1016.8
20260904230032 62 175 0.0 3.0 0.00 0.02 0.02 73 1016.9
20260904224536 65 211 2.0 6.0 0.00 0.02 0.02 64 1016.7
20260904223035 66 200 0.0 3.0 0.00 0.02 0.02 61 1016.6
20260904220031 67 229 0.0 2.0 0.00 0.02 0.02 62 1016.4
20260904214535 67 216 0.0 2.0 0.00 0.02 0.02 65 1016.4
20260904213035 65 202 0.0 1.0 0.00 0.02 0.02 68 1016.4
20260904211609 64 192 0.0 3.0 0.00 0.02 0.02 70 1016.3
20260904210108 64 80 0.0 0.0 0.00 0.02 0.02 69 1016.3
20260904204534 64 157 0.0 0.0 0.00 0.02 0.02 69 1016.3
20260904203034 64 150 0.0 3.0 0.00 0.02 0.02 69 1016.4
20260904201534 63 142 1.0 3.0 0.00 0.02 0.02 72 1016.5
20260904200033 63 114 0.0 2.0 0.00 0.02 0.02 73 1016.6
20260904194536 63 93 0.0 0.0 0.00 0.02 0.02 74 1016.7
20260904193034 62 22 0.0 1.0 0.00 0.02 0.02 75 1016.9
20260904191531 62 359 0.0 2.0 0.00 0.02 0.02 75 1016.9
20260904184534 60 22 0.0 0.0 0.00 0.02 0.02 81 1017.1
20260904183044 60 314 0.0 0.0 0.00 0.02 0.02 82 1017.1
20260904180034 57 292 0.0 0.0 0.00 0.02 0.02 86 1017.0
20260904174534 57 292 0.0 0.0 0.00 0.02 0.02 87 1017.1
20260904173033 58 255 0.0 2.0 0.00 0.02 0.02 86 1017.1
20260904171607 58 257 0.0 4.0 0.00 0.02 0.02 88 1017.0
20260904170053 58 299 0.0 1.0 0.00 0.02 0.02 89 1017.0
20260904164534 57 359 0.0 3.0 0.00 0.02 0.02 92 1016.9
20260904161607 54 157 0.0 0.0 0.00 0.02 0.02 96 1016.9
20260904160034 54 157 0.0 0.0 0.00 0.02 0.02 98 1016.9
20260904154534 53 157 0.0 0.0 0.00 0.02 0.02 98 1016.8
20260904153033 52 168 0.0 0.0 0.00 0.02 0.02 98 1016.7
20260904150034 51 225 0.0 0.0 0.00 0.02 0.02 98 1016.5
20260904144643 51 225 0.0 0.0 0.00 0.02 0.02 98 1016.4
20260904143035 50 225 0.0 0.0 0.00 0.02 0.02 98 1016.3
20260904141535 50 225 0.0 0.0 0.00 0.02 0.02 98 1016.1
20260904134535 50 225 0.0 0.0 0.01 0.02 0.02 98 1015.8
20260904133035 50 225 0.0 0.0 0.01 0.02 0.02 98 1015.7
20260904130035 49 225 0.0 0.0 0.00 0.01 0.01 98 1015.3
20260904124648 50 225 0.0 0.0 0.00 0.01 0.01 98 1015.3
20260904121534 49 225 0.0 0.0 0.00 0.01 0.01 98 1015.2
20260904114649 50 225 0.0 0.0 0.00 0.01 0.01 98 1014.9
20260904113110 50 225 0.0 0.0 0.00 0.01 0.01 98 1014.8
20260904111532 50 225 0.0 0.0 0.01 0.01 0.01 98 1014.7
20260904110033 50 225 0.0 0.0 0.01 0.01 0.01 98 1014.6